FENGYUN 1C DEB, 36238

Orbit data source: Space-Track

FENGYUN 1C DEB, 36238 is space debris in SSO originally from a launch on Mon, 10 May 1999 UTC launched from the Taiyaun Space Center, China (TSC). Fengyun 1C debris stems from the Chinese weather satellite Fengyun-1C, which was intentionally destroyed by a Chinese anti-satellite missile in 2007. This event dramatically increased the amount of space debris, with thousands of trackable fragments posing hazards to satellites and human spaceflight. The Fengyun 1C debris cloud has become a focal point in discussions about space sustainability and the need for international regulations to prevent the creation of new debris.

Loading next visibility...
Identifier
36238, 1999-025DVP
Orbit
SSO
Country
Flag of CNCN / PRC
Related business
Manufacturer
Unknown
Mission
Spacecraft
Bus & Motor
Unknown
Mass
Unknown
Launch date (UTC)
1999-05-10 (27 years ago)
Launch vehicle
Unknown
Launch site
Taiyaun Space Center, China (TSC)
Object type
Payload
Rocket body
Debris
Shape & HBR
Unknown shape, 0.1 m
Radar Cross Section
Small (<0.1 m²)

Expand to show TLE details & history
Last TLE update: 1 day ago

TLE from 1 day ago
0 FENGYUN 1C DEB
1 36238U 99025DVP 26037.37891393  .00000130  00000-0  93010-4 0  9999
2 36238  98.6554  12.9183 0022071 120.8849 239.4497 14.12410911878037
Epoch: 2026-02-06T09:05Z
TLE epoch observation values (Epoch: 2026-02-06T09:05:38.163Z)
Latitude
-0.0001°
Longitude
99.99166°
Altitude
862.177 km
Speed
7.417 km/s
True Right ascension
00h 51m 40s
True Declination
0° 00' 00"
Sunlit
Object was in daylight at epoch
Visualization orbit readout
Latitude
Unknown
Longitude
Unknown
Altitude
Unknown
Speed
Unknown
Apparent Right ascension
Unknown
Apparent Declination
Unknown
Sunlit
N/A
Visualization observer readout
Local Sidereal Time
13:13:48
Azimuth
Unknown
Elevation
Unknown
Doppler factor
Unknown
Orbital elements
Apogee altitude
864.249 km
Perigee altitude
832.35 km
Semi-major axis
7,226.436 km
Eccentricity
0.00221
Inclination
98.6554°
RAAN
12.9183°
Arg. of periapsis
120.8849°
True anomaly
239.2322°
Mean anomaly
239.4497°
Eccentric anomaly
239.34092°
Mean motion
3.53311 °/min
Orbital period
101.89 mins
BSTAR
0.00009301
Loading maneuver chart data...
Computing Atmospheric mass density...

Documentation

Showing up to 5 results
|